map of CMN home
Great Circle Mapper logo
CMN - Airport
Location
City:  Casablanca, Morocco
Name:Mohammed V International Airport
ICAO / IATA:GMMN / CMN

Details
Type:Airport (Aerodrome, Airfield)
Use:Public/Civil, International (customs port of entry)
Latitude:3322'03"N (33.367467)
Longitude:735'24"W (-7.589966)
Datum:WGS 1984
Elevation:656 ft (200 m)
Runways:2
Longest:12205 × 148 ft (3720 × 45 m), paved

Time
Time Zone:UTC+0 (DST+1)
Local Time:

Weather
METAR:GMMN 231230Z 02013KT 350V060 CAVOK 28/17 Q1018 NOSIG
TAF:GMMN 231100Z 2312/2418 01014KT CAVOK
BECMG 2319/2323 05004KT 8000 SCT016
BECMG 2410/2412 36014KT CAVOK

Related Locations
Nearby:
Farthest:KAT: 12304 mi / 19802 km
Kaitaia, NZ

Find:

   beyond  
but within

Other Information
Maps:
NOTAMs:
Links:
Sources:

  
flag of Morocco   

Sectional Chart

Flight Planning
at skyvector.com

Satellite Image

Google Maps Satellite View

 

Copyright © 2004-2014 Karl L. Swartz. All rights reserved.
The Great Circle Mapper name and logo are trademarks of the Great Circle Mapper.
All other trademarks mentioned herein belong to their respective owners.
Please see credits for attibutions and further copyright information.

  Follow gcmap on Facebook Follow gcmap on Twitter

hCard Microformat

Geo Microformat